Time,TemperatureF,DewpointF,PressureIn,WindDirection,WindDirectionDegrees,WindSpeedMPH,WindSpeedGustMPH,Humidity,HourlyPrecipIn,Conditions,Clouds,dailyrainin,SoftwareType,DateUTC
2013-11-15 00:01:00,45.7,33.0,30.17,West,270,1.4,6.0,61,0.00,,,0.00,Rainwise IP-100,2013-11-15 05:01:00,
2013-11-15 00:06:00,45.6,33.0,30.17,SW,225,4.2,6.0,61,0.00,,,0.00,Rainwise IP-100,2013-11-15 05:06:00,
2013-11-15 00:11:00,45.5,33.0,30.17,SW,225,0.0,7.0,62,0.00,,,0.00,Rainwise IP-100,2013-11-15 05:11:00,
2013-11-15 00:16:00,45.4,33.0,30.17,WSW,247,3.5,10.0,63,0.00,,,0.00,Rainwise IP-100,2013-11-15 05:16:00,
2013-11-15 00:21:00,45.4,33.0,30.17,WSW,247,3.7,8.0,63,0.00,,,0.00,Rainwise IP-100,2013-11-15 05:21:00,
2013-11-15 00:26:00,45.6,35.0,30.17,West,270,4.7,10.0,64,0.00,,,0.00,Rainwise IP-100,2013-11-15 05:26:00,
2013-11-15 00:31:00,45.9,35.0,30.17,WSW,247,3.5,11.0,63,0.00,,,0.00,Rainwise IP-100,2013-11-15 05:31:00,
2013-11-15 00:36:00,46.3,35.0,30.17,WNW,292,3.7,11.0,63,0.00,,,0.00,Rainwise IP-100,2013-11-15 05:36:00,
2013-11-15 00:41:00,46.4,35.0,30.17,SSE,157,2.3,8.0,63,0.00,,,0.00,Rainwise IP-100,2013-11-15 05:41:00,
2013-11-15 00:46:00,46.5,35.0,30.17,WSW,247,2.6,10.0,63,0.00,,,0.00,Rainwise IP-100,2013-11-15 05:46:00,
2013-11-15 00:51:00,46.4,35.0,30.17,SSW,202,2.1,7.0,63,0.00,,,0.00,Rainwise IP-100,2013-11-15 05:51:00,
2013-11-15 00:56:00,46.2,35.0,30.17,SW,225,6.5,8.0,63,0.00,,,0.00,Rainwise IP-100,2013-11-15 05:56:00,
2013-11-15 01:01:00,46.1,35.0,30.16,WSW,247,4.9,12.0,63,0.00,,,0.00,Rainwise IP-100,2013-11-15 06:01:00,
2013-11-15 01:06:00,46.1,35.0,30.16,SW,225,4.7,11.0,63,0.00,,,0.00,Rainwise IP-100,2013-11-15 06:06:00,
2013-11-15 01:11:00,46.3,35.0,30.17,SW,225,5.4,11.0,63,0.00,,,0.00,Rainwise IP-100,2013-11-15 06:11:00,
2013-11-15 01:16:00,46.4,33.0,30.16,West,270,7.7,14.0,62,0.00,,,0.00,Rainwise IP-100,2013-11-15 06:16:00,
2013-11-15 01:21:00,46.5,35.0,30.17,West,270,4.0,12.0,62,0.00,,,0.00,Rainwise IP-100,2013-11-15 06:21:00,
2013-11-15 01:26:00,46.5,35.0,30.17,WSW,247,8.4,9.0,62,0.00,,,0.00,Rainwise IP-100,2013-11-15 06:26:00,
2013-11-15 01:31:00,46.4,33.0,30.16,WNW,292,1.4,8.0,62,0.00,,,0.00,Rainwise IP-100,2013-11-15 06:31:00,
2013-11-15 01:36:00,46.2,33.0,30.17,West,270,3.5,8.0,62,0.00,,,0.00,Rainwise IP-100,2013-11-15 06:36:00,
2013-11-15 01:41:00,45.9,33.0,30.17,SW,225,3.3,8.0,62,0.00,,,0.00,Rainwise IP-100,2013-11-15 06:41:00,
2013-11-15 01:46:00,45.7,35.0,30.17,SSW,202,4.4,8.0,63,0.00,,,0.00,Rainwise IP-100,2013-11-15 06:46:00,
2013-11-15 01:51:00,45.6,35.0,30.17,SSW,202,3.0,7.0,65,0.00,,,0.00,Rainwise IP-100,2013-11-15 06:51:00,
2013-11-15 01:56:00,45.4,35.0,30.17,West,270,3.5,7.0,66,0.00,,,0.00,Rainwise IP-100,2013-11-15 06:56:00,
2013-11-15 02:01:00,45.2,35.0,30.17,West,270,3.0,7.0,68,0.00,,,0.00,Rainwise IP-100,2013-11-15 07:01:00,
2013-11-15 02:06:00,45.3,36.0,30.18,WNW,292,3.5,8.0,69,0.00,,,0.00,Rainwise IP-100,2013-11-15 07:06:00,
2013-11-15 02:11:00,45.5,37.0,30.17,WSW,247,2.6,8.0,70,0.00,,,0.00,Rainwise IP-100,2013-11-15 07:11:00,
2013-11-15 02:16:00,45.5,37.0,30.17,SW,225,3.3,7.0,70,0.00,,,0.00,Rainwise IP-100,2013-11-15 07:16:00,
2013-11-15 02:21:00,45.5,37.0,30.17,WNW,292,5.4,7.0,70,0.00,,,0.00,Rainwise IP-100,2013-11-15 07:21:00,
2013-11-15 02:26:00,45.5,37.0,30.17,WSW,247,6.1,8.0,70,0.00,,,0.00,Rainwise IP-100,2013-11-15 07:26:00,
2013-11-15 02:31:00,45.6,37.0,30.18,SW,225,3.3,7.0,71,0.00,,,0.00,Rainwise IP-100,2013-11-15 07:31:00,
2013-11-15 02:36:00,45.6,37.0,30.17,SW,225,3.5,9.0,71,0.00,,,0.00,Rainwise IP-100,2013-11-15 07:36:00,
2013-11-15 02:41:00,45.5,37.0,30.18,WSW,247,5.4,8.0,71,0.00,,,0.00,Rainwise IP-100,2013-11-15 07:41:00,
2013-11-15 02:46:00,45.4,37.0,30.17,WSW,247,5.1,6.0,72,0.00,,,0.00,Rainwise IP-100,2013-11-15 07:46:00,
2013-11-15 02:51:00,45.4,37.0,30.17,WSW,247,4.4,6.0,72,0.00,,,0.00,Rainwise IP-100,2013-11-15 07:51:00,
2013-11-15 02:56:00,45.3,37.0,30.18,SSW,202,4.9,7.0,73,0.00,,,0.00,Rainwise IP-100,2013-11-15 07:56:00,
2013-11-15 03:01:00,45.0,37.0,30.18,SW,225,7.9,7.9,73,0.00,,,0.00,Rainwise IP-100,2013-11-15 08:01:00,
2013-11-15 03:06:00,45.0,37.0,30.17,WSW,247,1.4,9.0,73,0.00,,,0.00,Rainwise IP-100,2013-11-15 08:06:00,
2013-11-15 03:11:00,45.1,37.0,30.17,SW,225,4.0,8.0,72,0.00,,,0.00,Rainwise IP-100,2013-11-15 08:11:00,
2013-11-15 03:16:00,45.3,37.0,30.17,SSW,202,2.6,7.0,72,0.00,,,0.00,Rainwise IP-100,2013-11-15 08:16:00,
2013-11-15 03:21:00,45.4,36.0,30.17,WSW,247,4.7,9.0,71,0.00,,,0.00,Rainwise IP-100,2013-11-15 08:21:00,
2013-11-15 03:26:00,45.6,37.0,30.18,SSW,202,3.7,10.0,70,0.00,,,0.00,Rainwise IP-100,2013-11-15 08:26:00,
2013-11-15 03:31:00,45.6,37.0,30.17,SSW,202,3.7,8.0,70,0.00,,,0.00,Rainwise IP-100,2013-11-15 08:31:00,
2013-11-15 03:36:00,45.6,36.0,30.18,SW,225,7.0,11.0,69,0.00,,,0.00,Rainwise IP-100,2013-11-15 08:36:00,
2013-11-15 03:41:00,45.8,36.0,30.18,WSW,247,4.4,9.0,69,0.00,,,0.00,Rainwise IP-100,2013-11-15 08:41:00,
2013-11-15 03:46:00,45.8,36.0,30.18,West,270,2.8,7.0,69,0.00,,,0.00,Rainwise IP-100,2013-11-15 08:46:00,
2013-11-15 03:51:00,45.5,36.0,30.18,WSW,247,3.3,12.0,69,0.00,,,0.00,Rainwise IP-100,2013-11-15 08:51:00,
2013-11-15 03:56:00,45.5,36.0,30.19,WSW,247,6.3,9.0,69,0.00,,,0.00,Rainwise IP-100,2013-11-15 08:56:00,
2013-11-15 04:01:00,45.5,36.0,30.18,WSW,247,3.5,12.0,68,0.00,,,0.00,Rainwise IP-100,2013-11-15 09:01:00,
2013-11-15 04:06:00,45.5,36.0,30.19,WSW,247,5.4,8.0,67,0.00,,,0.00,Rainwise IP-100,2013-11-15 09:06:00,
2013-11-15 04:11:00,45.5,36.0,30.18,SSW,202,1.6,8.0,67,0.00,,,0.00,Rainwise IP-100,2013-11-15 09:11:00,
2013-11-15 04:16:00,45.5,35.0,30.19,WSW,247,3.5,9.0,66,0.00,,,0.00,Rainwise IP-100,2013-11-15 09:16:00,
2013-11-15 04:21:00,45.5,35.0,30.19,WSW,247,6.3,7.0,66,0.00,,,0.00,Rainwise IP-100,2013-11-15 09:21:00,
2013-11-15 04:26:00,45.6,35.0,30.19,SW,225,4.2,9.0,65,0.00,,,0.00,Rainwise IP-100,2013-11-15 09:26:00,
2013-11-15 04:31:00,45.6,35.0,30.19,WSW,247,2.6,7.0,65,0.00,,,0.00,Rainwise IP-100,2013-11-15 09:31:00,
2013-11-15 04:36:00,45.3,35.0,30.19,WSW,247,3.7,8.0,65,0.00,,,0.00,Rainwise IP-100,2013-11-15 09:36:00,
2013-11-15 04:41:00,45.0,35.0,30.19,West,270,8.4,8.4,65,0.00,,,0.00,Rainwise IP-100,2013-11-15 09:41:00,
2013-11-15 04:46:00,44.9,35.0,30.19,WSW,247,4.0,9.0,65,0.00,,,0.00,Rainwise IP-100,2013-11-15 09:46:00,
2013-11-15 04:51:00,45.2,33.0,30.19,West,270,5.6,8.0,64,0.00,,,0.00,Rainwise IP-100,2013-11-15 09:51:00,
2013-11-15 04:56:00,45.2,33.0,30.19,WSW,247,3.3,7.0,64,0.00,,,0.00,Rainwise IP-100,2013-11-15 09:56:00,
2013-11-15 05:01:00,45.1,33.0,30.19,SW,225,4.2,10.0,64,0.00,,,0.00,Rainwise IP-100,2013-11-15 10:01:00,
2013-11-15 05:06:00,45.2,33.0,30.19,WSW,247,3.0,8.0,63,0.00,,,0.00,Rainwise IP-100,2013-11-15 10:06:00,
2013-11-15 05:11:00,45.2,33.0,30.20,West,270,2.6,9.0,63,0.00,,,0.00,Rainwise IP-100,2013-11-15 10:11:00,
2013-11-15 05:16:00,45.1,33.0,30.20,WNW,292,6.5,8.0,63,0.00,,,0.00,Rainwise IP-100,2013-11-15 10:16:00,
2013-11-15 05:21:00,45.1,33.0,30.20,WSW,247,4.0,10.0,63,0.00,,,0.00,Rainwise IP-100,2013-11-15 10:21:00,
2013-11-15 05:26:00,44.9,33.0,30.20,West,270,5.8,7.0,63,0.00,,,0.00,Rainwise IP-100,2013-11-15 10:26:00,
2013-11-15 05:31:00,44.7,33.0,30.20,WSW,247,2.8,7.0,63,0.00,,,0.00,Rainwise IP-100,2013-11-15 10:31:00,
2013-11-15 05:36:00,44.5,33.0,30.21,WSW,247,1.2,7.0,63,0.00,,,0.00,Rainwise IP-100,2013-11-15 10:36:00,
2013-11-15 05:41:00,44.2,32.0,30.21,WSW,247,2.8,8.0,63,0.00,,,0.00,Rainwise IP-100,2013-11-15 10:41:00,
2013-11-15 05:46:00,43.9,32.0,30.21,SW,225,2.6,7.0,63,0.00,,,0.00,Rainwise IP-100,2013-11-15 10:46:00,
2013-11-15 05:51:00,43.4,32.0,30.21,WSW,247,2.1,3.0,64,0.00,,,0.00,Rainwise IP-100,2013-11-15 10:51:00,
2013-11-15 05:56:00,42.8,32.0,30.21,WSW,247,2.8,3.0,65,0.00,,,0.00,Rainwise IP-100,2013-11-15 10:56:00,
2013-11-15 06:01:00,42.5,32.0,30.21,WSW,247,2.6,5.0,66,0.00,,,0.00,Rainwise IP-100,2013-11-15 11:01:00,
2013-11-15 06:06:00,42.2,32.0,30.21,West,270,1.6,4.0,67,0.00,,,0.00,Rainwise IP-100,2013-11-15 11:06:00,
2013-11-15 06:11:00,42.0,32.0,30.21,WSW,247,3.3,4.0,67,0.00,,,0.00,Rainwise IP-100,2013-11-15 11:11:00,
2013-11-15 06:16:00,41.7,32.0,30.22,SW,225,0.0,4.0,67,0.00,,,0.00,Rainwise IP-100,2013-11-15 11:16:00,
2013-11-15 06:21:00,41.2,32.0,30.22,SSW,202,2.1,4.0,68,0.00,,,0.00,Rainwise IP-100,2013-11-15 11:21:00,
2013-11-15 06:26:00,40.9,32.0,30.22,SSW,202,2.3,4.0,70,0.00,,,0.00,Rainwise IP-100,2013-11-15 11:26:00,
2013-11-15 06:31:00,40.8,32.0,30.21,SW,225,2.3,3.0,71,0.00,,,0.00,Rainwise IP-100,2013-11-15 11:31:00,
2013-11-15 06:36:00,40.8,33.0,30.22,SW,225,2.1,3.0,72,0.00,,,0.00,Rainwise IP-100,2013-11-15 11:36:00,
2013-11-15 06:41:00,40.6,33.0,30.21,SW,225,3.7,4.0,72,0.00,,,0.00,Rainwise IP-100,2013-11-15 11:41:00,
2013-11-15 06:46:00,40.5,33.0,30.21,SW,225,1.4,4.0,72,0.00,,,0.00,Rainwise IP-100,2013-11-15 11:46:00,
2013-11-15 06:51:00,40.8,33.0,30.22,West,270,1.4,2.0,73,0.00,,,0.00,Rainwise IP-100,2013-11-15 11:51:00,
2013-11-15 06:56:00,41.3,33.0,30.22,WNW,292,0.0,4.0,74,0.00,,,0.00,Rainwise IP-100,2013-11-15 11:56:00,
2013-11-15 07:01:00,41.8,35.0,30.23,WNW,292,2.3,5.0,73,0.00,,,0.00,Rainwise IP-100,2013-11-15 12:01:00,
2013-11-15 07:06:00,42.2,35.0,30.23,SW,225,1.2,3.0,73,0.00,,,0.00,Rainwise IP-100,2013-11-15 12:06:00,
2013-11-15 07:11:00,42.6,35.0,30.23,WNW,292,2.8,4.0,72,0.00,,,0.00,Rainwise IP-100,2013-11-15 12:11:00,
2013-11-15 07:16:00,43.1,35.0,30.23,WSW,247,1.2,4.0,71,0.00,,,0.00,Rainwise IP-100,2013-11-15 12:16:00,
2013-11-15 07:21:00,43.4,35.0,30.23,West,270,1.2,2.0,71,0.00,,,0.00,Rainwise IP-100,2013-11-15 12:21:00,
2013-11-15 07:26:00,43.6,36.0,30.24,WNW,292,1.6,3.0,71,0.00,,,0.00,Rainwise IP-100,2013-11-15 12:26:00,
2013-11-15 07:31:00,43.9,36.0,30.24,WSW,247,2.3,4.0,71,0.00,,,0.00,Rainwise IP-100,2013-11-15 12:31:00,
2013-11-15 07:36:00,44.4,36.0,30.24,WSW,247,1.6,6.0,71,0.00,,,0.00,Rainwise IP-100,2013-11-15 12:36:00,
2013-11-15 07:41:00,45.0,36.0,30.24,WSW,247,3.3,5.0,70,0.00,,,0.00,Rainwise IP-100,2013-11-15 12:41:00,
2013-11-15 07:46:00,45.4,36.0,30.24,WSW,247,0.0,4.0,70,0.00,,,0.00,Rainwise IP-100,2013-11-15 12:46:00,
2013-11-15 07:51:00,45.9,36.0,30.24,West,270,3.7,5.0,69,0.00,,,0.00,Rainwise IP-100,2013-11-15 12:51:00,
2013-11-15 07:56:00,46.7,37.0,30.24,SW,225,2.8,6.0,68,0.00,,,0.00,Rainwise IP-100,2013-11-15 12:56:00,
2013-11-15 08:01:00,47.4,37.0,30.24,SW,225,4.9,7.0,66,0.00,,,0.00,Rainwise IP-100,2013-11-15 13:01:00,
2013-11-15 08:06:00,47.8,36.0,30.25,SW,225,4.0,7.0,65,0.00,,,0.00,Rainwise IP-100,2013-11-15 13:06:00,
2013-11-15 08:11:00,48.1,37.0,30.24,SW,225,4.9,7.0,64,0.00,,,0.00,Rainwise IP-100,2013-11-15 13:11:00,
2013-11-15 08:16:00,48.1,37.0,30.24,WSW,247,1.6,7.0,64,0.00,,,0.00,Rainwise IP-100,2013-11-15 13:16:00,
2013-11-15 08:21:00,48.1,37.0,30.24,WSW,247,4.0,7.0,64,0.00,,,0.00,Rainwise IP-100,2013-11-15 13:21:00,
2013-11-15 08:26:00,48.1,37.0,30.24,WSW,247,4.0,7.0,64,0.00,,,0.00,Rainwise IP-100,2013-11-15 13:26:00,
2013-11-15 08:31:00,48.1,37.0,30.24,SW,225,2.1,6.0,64,0.00,,,0.00,Rainwise IP-100,2013-11-15 13:31:00,
2013-11-15 08:36:00,48.1,37.0,30.24,SW,225,4.9,7.0,64,0.00,,,0.00,Rainwise IP-100,2013-11-15 13:36:00,
2013-11-15 08:41:00,48.1,37.0,30.24,SSW,202,2.8,6.0,65,0.00,,,0.00,Rainwise IP-100,2013-11-15 13:41:00,
2013-11-15 08:46:00,48.4,37.0,30.24,WSW,247,4.9,6.0,66,0.00,,,0.00,Rainwise IP-100,2013-11-15 13:46:00,
2013-11-15 08:51:00,48.8,38.0,30.24,WSW,247,1.9,6.0,66,0.00,,,0.00,Rainwise IP-100,2013-11-15 13:51:00,
2013-11-15 08:56:00,49.0,38.0,30.24,WSW,247,4.7,4.7,67,0.00,,,0.00,Rainwise IP-100,2013-11-15 13:56:00,
2013-11-15 09:01:00,49.4,39.0,30.24,SW,225,1.2,5.0,68,0.00,,,0.00,Rainwise IP-100,2013-11-15 14:01:00,
2013-11-15 09:06:00,50.0,40.0,30.24,West,270,4.7,8.0,70,0.00,,,0.00,Rainwise IP-100,2013-11-15 14:06:00,
2013-11-15 09:11:00,50.8,41.0,30.24,SW,225,4.7,7.0,71,0.00,,,0.00,Rainwise IP-100,2013-11-15 14:11:00,
2013-11-15 09:16:00,51.5,43.0,30.24,SSW,202,4.7,7.0,72,0.00,,,0.00,Rainwise IP-100,2013-11-15 14:16:00,
2013-11-15 09:21:00,52.3,43.0,30.24,SW,225,5.4,9.0,72,0.00,,,0.00,Rainwise IP-100,2013-11-15 14:21:00,
2013-11-15 09:26:00,52.8,44.0,30.24,SSW,202,8.9,12.0,72,0.00,,,0.00,Rainwise IP-100,2013-11-15 14:26:00,
2013-11-15 09:31:00,53.1,43.0,30.24,SSW,202,7.2,12.0,71,0.00,,,0.00,Rainwise IP-100,2013-11-15 14:31:00,
2013-11-15 09:36:00,53.1,43.0,30.24,SSW,202,6.8,13.0,69,0.00,,,0.00,Rainwise IP-100,2013-11-15 14:36:00,
2013-11-15 09:37:00,53.1,42.0,30.24,WSW,247,11.7,13.0,68,0.00,,,0.00,Rainwise IP-100,2013-11-15 14:37:00,
2013-11-15 09:42:00,53.1,42.0,30.24,SSW,202,5.6,15.0,67,0.00,,,0.00,Rainwise IP-100,2013-11-15 14:42:00,
2013-11-15 09:47:00,53.1,41.0,30.25,SSW,202,7.7,15.0,66,0.00,,,0.00,Rainwise IP-100,2013-11-15 14:47:00,
2013-11-15 09:52:00,53.1,41.0,30.24,WSW,247,10.7,14.0,65,0.00,,,0.00,Rainwise IP-100,2013-11-15 14:52:00,
2013-11-15 09:57:00,53.3,41.0,30.24,SW,225,3.3,10.0,65,0.00,,,0.00,Rainwise IP-100,2013-11-15 14:57:00,
2013-11-15 10:02:00,53.6,41.0,30.24,SSW,202,6.3,12.0,64,0.00,,,0.00,Rainwise IP-100,2013-11-15 15:02:00,
2013-11-15 10:07:00,53.8,41.0,30.24,SW,225,7.5,12.0,63,0.00,,,0.00,Rainwise IP-100,2013-11-15 15:07:00,
2013-11-15 10:12:00,54.2,41.0,30.25,SSW,202,8.2,11.0,62,0.00,,,0.00,Rainwise IP-100,2013-11-15 15:12:00,
2013-11-15 10:17:00,54.5,41.0,30.24,SSW,202,4.9,13.0,61,0.00,,,0.00,Rainwise IP-100,2013-11-15 15:17:00,
2013-11-15 10:22:00,54.5,41.0,30.24,SSW,202,13.3,16.0,60,0.00,,,0.00,Rainwise IP-100,2013-11-15 15:22:00,
2013-11-15 10:27:00,54.4,40.0,30.25,SW,225,5.6,14.0,58,0.00,,,0.00,Rainwise IP-100,2013-11-15 15:27:00,
2013-11-15 10:32:00,54.6,40.0,30.24,SW,225,6.5,13.0,58,0.00,,,0.00,Rainwise IP-100,2013-11-15 15:32:00,
2013-11-15 10:37:00,54.9,40.0,30.24,WSW,247,8.4,17.0,57,0.00,,,0.00,Rainwise IP-100,2013-11-15 15:37:00,
2013-11-15 10:42:00,55.1,40.0,30.24,SSE,157,3.3,15.0,56,0.00,,,0.00,Rainwise IP-100,2013-11-15 15:42:00,
2013-11-15 10:47:00,55.3,39.0,30.24,South,180,6.5,17.0,55,0.00,,,0.00,Rainwise IP-100,2013-11-15 15:47:00,
2013-11-15 10:52:00,55.4,39.0,30.24,SSW,202,5.4,14.0,55,0.00,,,0.00,Rainwise IP-100,2013-11-15 15:52:00,
2013-11-15 10:57:00,55.4,39.0,30.24,SSW,202,6.3,11.0,55,0.00,,,0.00,Rainwise IP-100,2013-11-15 15:57:00,
2013-11-15 11:02:00,55.4,39.0,30.24,SSW,202,3.5,12.0,55,0.00,,,0.00,Rainwise IP-100,2013-11-15 16:02:00,
2013-11-15 11:07:00,55.2,39.0,30.23,SSW,202,5.6,15.0,54,0.00,,,0.00,Rainwise IP-100,2013-11-15 16:07:00,
2013-11-15 11:12:00,54.9,39.0,30.23,SW,225,6.3,10.0,55,0.00,,,0.00,Rainwise IP-100,2013-11-15 16:12:00,
2013-11-15 11:17:00,54.6,39.0,30.22,SSW,202,6.3,13.0,55,0.00,,,0.00,Rainwise IP-100,2013-11-15 16:17:00,
2013-11-15 11:22:00,54.4,39.0,30.22,SSW,202,6.3,11.0,55,0.00,,,0.00,Rainwise IP-100,2013-11-15 16:22:00,
2013-11-15 11:27:00,54.3,39.0,30.22,SSW,202,4.2,12.0,56,0.00,,,0.00,Rainwise IP-100,2013-11-15 16:27:00,
2013-11-15 11:32:00,54.2,39.0,30.22,SW,225,7.9,11.0,57,0.00,,,0.00,Rainwise IP-100,2013-11-15 16:32:00,
2013-11-15 11:37:00,54.2,40.0,30.21,SW,225,6.1,11.0,59,0.00,,,0.00,Rainwise IP-100,2013-11-15 16:37:00,
2013-11-15 11:42:00,54.3,40.0,30.21,SSW,202,7.0,12.0,60,0.00,,,0.00,Rainwise IP-100,2013-11-15 16:42:00,
2013-11-15 11:47:00,54.4,41.0,30.21,WSW,247,12.1,12.1,61,0.00,,,0.00,Rainwise IP-100,2013-11-15 16:47:00,
2013-11-15 11:52:00,54.4,42.0,30.21,WSW,247,5.1,12.0,62,0.00,,,0.00,Rainwise IP-100,2013-11-15 16:52:00,
2013-11-15 11:57:00,54.4,42.0,30.21,South,180,4.9,10.0,63,0.00,,,0.00,Rainwise IP-100,2013-11-15 16:57:00,
2013-11-15 12:02:00,54.4,43.0,30.21,SW,225,6.5,11.0,64,0.00,,,0.00,Rainwise IP-100,2013-11-15 17:02:00,
2013-11-15 12:07:00,54.5,43.0,30.21,WNW,292,7.7,14.0,65,0.00,,,0.00,Rainwise IP-100,2013-11-15 17:07:00,
2013-11-15 12:12:00,54.4,43.0,30.21,SW,225,8.6,11.0,65,0.00,,,0.00,Rainwise IP-100,2013-11-15 17:12:00,
2013-11-15 12:17:00,54.4,43.0,30.21,SW,225,8.2,12.0,66,0.00,,,0.00,Rainwise IP-100,2013-11-15 17:17:00,
2013-11-15 12:22:00,54.5,44.0,30.21,SW,225,2.6,11.0,67,0.00,,,0.00,Rainwise IP-100,2013-11-15 17:22:00,
2013-11-15 12:27:00,54.8,44.0,30.21,WSW,247,8.9,12.0,67,0.00,,,0.00,Rainwise IP-100,2013-11-15 17:27:00,
2013-11-15 12:32:00,54.9,44.0,30.21,SW,225,4.0,12.0,67,0.00,,,0.00,Rainwise IP-100,2013-11-15 17:32:00,
2013-11-15 12:37:00,54.9,44.0,30.21,SSW,202,8.2,11.0,67,0.00,,,0.00,Rainwise IP-100,2013-11-15 17:37:00,
2013-11-15 12:42:00,54.9,44.0,30.21,WSW,247,7.2,12.0,66,0.00,,,0.00,Rainwise IP-100,2013-11-15 17:42:00,
2013-11-15 12:47:00,55.0,44.0,30.21,WSW,247,6.8,12.0,66,0.00,,,0.00,Rainwise IP-100,2013-11-15 17:47:00,
2013-11-15 12:52:00,55.1,44.0,30.20,SW,225,8.6,13.0,65,0.00,,,0.00,Rainwise IP-100,2013-11-15 17:52:00,
2013-11-15 12:57:00,55.4,43.0,30.21,South,180,8.2,12.0,64,0.00,,,0.00,Rainwise IP-100,2013-11-15 17:57:00,
2013-11-15 13:02:00,55.4,43.0,30.20,WSW,247,7.0,9.0,63,0.00,,,0.00,Rainwise IP-100,2013-11-15 18:02:00,
2013-11-15 13:07:00,55.2,43.0,30.20,WSW,247,8.2,11.0,63,0.00,,,0.00,Rainwise IP-100,2013-11-15 18:07:00,
2013-11-15 13:12:00,55.0,44.0,30.21,WSW,247,6.3,13.0,65,0.00,,,0.00,Rainwise IP-100,2013-11-15 18:12:00,
2013-11-15 13:17:00,55.0,44.0,30.20,WSW,247,3.7,10.0,66,0.00,,,0.00,Rainwise IP-100,2013-11-15 18:17:00,
2013-11-15 13:22:00,55.0,44.0,30.19,WSW,247,5.8,11.0,67,0.00,,,0.00,Rainwise IP-100,2013-11-15 18:22:00,
2013-11-15 13:27:00,55.0,45.0,30.19,West,270,3.3,10.0,68,0.00,,,0.00,Rainwise IP-100,2013-11-15 18:27:00,
2013-11-15 13:32:00,54.8,45.0,30.19,SSW,202,7.7,11.0,69,0.00,,,0.00,Rainwise IP-100,2013-11-15 18:32:00,
2013-11-15 13:37:00,54.5,45.0,30.19,SW,225,7.9,12.0,70,0.00,,,0.00,Rainwise IP-100,2013-11-15 18:37:00,
2013-11-15 13:42:00,54.2,44.0,30.19,WSW,247,6.1,11.0,70,0.00,,,0.00,Rainwise IP-100,2013-11-15 18:42:00,
2013-11-15 13:47:00,54.0,45.0,30.19,WSW,247,7.7,10.0,71,0.00,,,0.00,Rainwise IP-100,2013-11-15 18:47:00,
2013-11-15 13:52:00,53.8,45.0,30.19,SSW,202,5.4,11.0,72,0.00,,,0.00,Rainwise IP-100,2013-11-15 18:52:00,
2013-11-15 13:57:00,53.8,45.0,30.19,SSW,202,8.4,11.0,73,0.00,,,0.00,Rainwise IP-100,2013-11-15 18:57:00,
2013-11-15 14:02:00,54.2,46.0,30.19,SSW,202,9.1,13.0,73,0.00,,,0.00,Rainwise IP-100,2013-11-15 19:02:00,
2013-11-15 14:07:00,54.7,46.0,30.19,SSW,202,5.4,12.0,73,0.00,,,0.00,Rainwise IP-100,2013-11-15 19:07:00,
2013-11-15 14:12:00,55.2,47.0,30.18,SSW,202,5.6,15.0,72,0.00,,,0.00,Rainwise IP-100,2013-11-15 19:12:00,
2013-11-15 14:17:00,55.5,47.0,30.19,SSW,202,5.1,11.0,72,0.00,,,0.00,Rainwise IP-100,2013-11-15 19:17:00,
2013-11-15 14:22:00,55.8,47.0,30.19,SSW,202,10.5,10.5,71,0.00,,,0.00,Rainwise IP-100,2013-11-15 19:22:00,
2013-11-15 14:27:00,55.9,47.0,30.19,WSW,247,3.7,11.0,71,0.00,,,0.00,Rainwise IP-100,2013-11-15 19:27:00,
2013-11-15 14:32:00,55.9,47.0,30.19,SW,225,13.8,13.8,71,0.00,,,0.00,Rainwise IP-100,2013-11-15 19:32:00,
2013-11-15 14:37:00,55.8,47.0,30.19,WSW,247,6.3,13.0,72,0.00,,,0.00,Rainwise IP-100,2013-11-15 19:37:00,
2013-11-15 14:42:00,55.6,47.0,30.19,SSW,202,6.3,12.0,73,0.00,,,0.00,Rainwise IP-100,2013-11-15 19:42:00,
2013-11-15 14:47:00,55.5,47.0,30.19,SW,225,7.2,15.0,74,0.00,,,0.00,Rainwise IP-100,2013-11-15 19:47:00,
2013-11-15 14:52:00,55.3,47.0,30.18,SSW,202,5.1,13.0,74,0.00,,,0.00,Rainwise IP-100,2013-11-15 19:52:00,
2013-11-15 14:57:00,54.9,47.0,30.19,SSW,202,10.5,15.0,74,0.00,,,0.00,Rainwise IP-100,2013-11-15 19:57:00,
2013-11-15 15:02:00,54.6,47.0,30.19,WSW,247,6.5,15.0,74,0.00,,,0.00,Rainwise IP-100,2013-11-15 20:02:00,
2013-11-15 15:07:00,54.3,47.0,30.19,SSW,202,9.8,15.0,75,0.00,,,0.00,Rainwise IP-100,2013-11-15 20:07:00,
2013-11-15 15:12:00,54.0,47.0,30.18,SW,225,9.8,14.0,75,0.00,,,0.00,Rainwise IP-100,2013-11-15 20:12:00,
2013-11-15 15:17:00,53.7,46.0,30.19,SSW,202,7.2,13.0,75,0.00,,,0.00,Rainwise IP-100,2013-11-15 20:17:00,
2013-11-15 15:22:00,53.4,46.0,30.19,South,180,5.4,12.0,76,0.00,,,0.00,Rainwise IP-100,2013-11-15 20:22:00,
2013-11-15 15:27:00,53.3,45.0,30.19,SW,225,7.2,16.0,76,0.00,,,0.00,Rainwise IP-100,2013-11-15 20:27:00,
2013-11-15 15:32:00,53.2,46.0,30.19,SSW,202,6.3,13.0,77,0.00,,,0.00,Rainwise IP-100,2013-11-15 20:32:00,
2013-11-15 15:37:00,53.1,46.0,30.18,SSW,202,5.6,11.0,78,0.00,,,0.00,Rainwise IP-100,2013-11-15 20:37:00,
2013-11-15 15:42:00,53.1,46.0,30.19,SSW,202,12.4,14.0,78,0.00,,,0.00,Rainwise IP-100,2013-11-15 20:42:00,
2013-11-15 15:47:00,53.1,47.0,30.18,SW,225,7.9,12.0,79,0.00,,,0.00,Rainwise IP-100,2013-11-15 20:47:00,
2013-11-15 15:52:00,52.9,47.0,30.18,SW,225,5.1,15.0,79,0.00,,,0.00,Rainwise IP-100,2013-11-15 20:52:00,
2013-11-15 15:57:00,52.8,47.0,30.19,South,180,5.4,13.0,79,0.00,,,0.00,Rainwise IP-100,2013-11-15 20:57:00,
2013-11-15 16:02:00,52.7,47.0,30.19,SW,225,8.6,14.0,80,0.00,,,0.00,Rainwise IP-100,2013-11-15 21:02:00,
2013-11-15 16:07:00,52.5,47.0,30.19,SSW,202,6.5,13.0,81,0.00,,,0.00,Rainwise IP-100,2013-11-15 21:07:00,
2013-11-15 16:12:00,52.3,47.0,30.19,SW,225,11.4,12.0,82,0.00,,,0.00,Rainwise IP-100,2013-11-15 21:12:00,
2013-11-15 16:17:00,52.2,47.0,30.19,WSW,247,8.2,14.0,82,0.00,,,0.00,Rainwise IP-100,2013-11-15 21:17:00,
2013-11-15 16:22:00,52.0,47.0,30.19,WSW,247,3.7,13.0,82,0.00,,,0.00,Rainwise IP-100,2013-11-15 21:22:00,
2013-11-15 16:27:00,51.9,47.0,30.19,South,180,6.5,12.0,82,0.00,,,0.00,Rainwise IP-100,2013-11-15 21:27:00,
2013-11-15 16:32:00,51.7,47.0,30.19,WSW,247,8.2,15.0,83,0.00,,,0.00,Rainwise IP-100,2013-11-15 21:32:00,
2013-11-15 16:37:00,51.6,47.0,30.19,SSW,202,3.7,13.0,83,0.00,,,0.00,Rainwise IP-100,2013-11-15 21:37:00,
2013-11-15 16:42:00,51.5,47.0,30.19,SW,225,7.0,14.0,83,0.00,,,0.00,Rainwise IP-100,2013-11-15 21:42:00,
2013-11-15 16:47:00,51.4,47.0,30.19,SSW,202,7.5,12.0,83,0.00,,,0.00,Rainwise IP-100,2013-11-15 21:47:00,
2013-11-15 16:52:00,51.4,47.0,30.19,South,180,4.2,11.0,83,0.00,,,0.00,Rainwise IP-100,2013-11-15 21:52:00,
2013-11-15 16:57:00,51.3,47.0,30.19,SW,225,5.1,11.0,83,0.00,,,0.00,Rainwise IP-100,2013-11-15 21:57:00,
2013-11-15 17:02:00,51.1,47.0,30.19,SSW,202,7.2,13.0,83,0.00,,,0.00,Rainwise IP-100,2013-11-15 22:02:00,
2013-11-15 17:07:00,51.0,47.0,30.19,SSW,202,4.7,13.0,83,0.00,,,0.00,Rainwise IP-100,2013-11-15 22:07:00,
2013-11-15 17:12:00,51.0,47.0,30.19,SSW,202,5.1,11.0,83,0.00,,,0.00,Rainwise IP-100,2013-11-15 22:12:00,
2013-11-15 17:17:00,51.0,47.0,30.19,SSW,202,2.6,12.0,83,0.00,,,0.00,Rainwise IP-100,2013-11-15 22:17:00,
2013-11-15 17:22:00,50.9,47.0,30.19,SSW,202,7.7,9.0,83,0.00,,,0.00,Rainwise IP-100,2013-11-15 22:22:00,
2013-11-15 17:27:00,50.8,46.0,30.20,SSW,202,5.1,15.0,83,0.00,,,0.00,Rainwise IP-100,2013-11-15 22:27:00,
2013-11-15 17:32:00,50.8,46.0,30.20,SW,225,6.1,10.0,84,0.00,,,0.00,Rainwise IP-100,2013-11-15 22:32:00,
2013-11-15 17:37:00,50.8,46.0,30.20,WSW,247,3.5,11.0,84,0.00,,,0.00,Rainwise IP-100,2013-11-15 22:37:00,
2013-11-15 17:42:00,50.8,46.0,30.20,WSW,247,4.7,11.0,84,0.00,,,0.00,Rainwise IP-100,2013-11-15 22:42:00,
2013-11-15 17:47:00,50.8,46.0,30.20,WSW,247,3.0,8.0,85,0.00,,,0.00,Rainwise IP-100,2013-11-15 22:47:00,
2013-11-15 17:52:00,50.7,46.0,30.19,WSW,247,7.7,9.0,85,0.00,,,0.00,Rainwise IP-100,2013-11-15 22:52:00,
2013-11-15 17:57:00,50.6,47.0,30.19,SSW,202,5.6,10.0,86,0.00,,,0.00,Rainwise IP-100,2013-11-15 22:57:00,
2013-11-15 18:02:00,50.8,47.0,30.19,SSW,202,3.5,10.0,86,0.00,,,0.00,Rainwise IP-100,2013-11-15 23:02:00,
2013-11-15 18:07:00,50.9,47.0,30.19,South,180,3.0,7.0,86,0.00,,,0.00,Rainwise IP-100,2013-11-15 23:07:00,
2013-11-15 18:12:00,50.9,47.0,30.19,SW,225,4.7,10.0,86,0.00,,,0.00,Rainwise IP-100,2013-11-15 23:12:00,
2013-11-15 18:17:00,50.8,47.0,30.19,WSW,247,5.1,10.0,86,0.00,,,0.00,Rainwise IP-100,2013-11-15 23:17:00,
2013-11-15 18:22:00,50.7,47.0,30.19,SW,225,4.9,10.0,87,0.00,,,0.00,Rainwise IP-100,2013-11-15 23:22:00,
2013-11-15 18:27:00,50.7,47.0,30.19,SSW,202,6.1,9.0,87,0.00,,,0.00,Rainwise IP-100,2013-11-15 23:27:00,
2013-11-15 18:32:00,50.7,47.0,30.19,SW,225,9.3,12.0,87,0.00,,,0.00,Rainwise IP-100,2013-11-15 23:32:00,
2013-11-15 18:37:00,50.7,47.0,30.19,SW,225,7.7,10.0,87,0.00,,,0.00,Rainwise IP-100,2013-11-15 23:37:00,
2013-11-15 18:42:00,50.7,47.0,30.19,SSW,202,6.1,10.0,87,0.00,,,0.00,Rainwise IP-100,2013-11-15 23:42:00,
2013-11-15 18:47:00,50.7,47.0,30.20,SW,225,4.2,8.0,87,0.00,,,0.00,Rainwise IP-100,2013-11-15 23:47:00,
2013-11-15 18:52:00,50.6,47.0,30.19,SSW,202,5.8,10.0,88,0.00,,,0.00,Rainwise IP-100,2013-11-15 23:52:00,
2013-11-15 18:57:00,50.5,47.0,30.19,SW,225,4.9,9.0,88,0.00,,,0.00,Rainwise IP-100,2013-11-15 23:57:00,
2013-11-15 19:02:00,50.4,47.0,30.19,SSW,202,7.9,8.0,88,0.00,,,0.00,Rainwise IP-100,2013-11-16 00:02:00,
2013-11-15 19:07:00,50.3,47.0,30.19,SW,225,7.9,8.0,88,0.00,,,0.00,Rainwise IP-100,2013-11-16 00:07:00,
2013-11-15 19:12:00,50.2,47.0,30.20,SW,225,5.8,11.0,89,0.00,,,0.00,Rainwise IP-100,2013-11-16 00:12:00,
2013-11-15 19:17:00,50.4,47.0,30.20,SSW,202,7.2,12.0,89,0.00,,,0.00,Rainwise IP-100,2013-11-16 00:17:00,
2013-11-15 19:22:00,50.5,47.0,30.19,WSW,247,2.8,12.0,89,0.00,,,0.00,Rainwise IP-100,2013-11-16 00:22:00,
2013-11-15 19:27:00,50.5,47.0,30.19,SSW,202,4.9,8.0,89,0.00,,,0.00,Rainwise IP-100,2013-11-16 00:27:00,
2013-11-15 19:32:00,50.5,47.0,30.19,SSW,202,5.6,9.0,89,0.00,,,0.00,Rainwise IP-100,2013-11-16 00:32:00,
2013-11-15 19:37:00,50.4,47.0,30.19,WSW,247,5.8,10.0,89,0.00,,,0.00,Rainwise IP-100,2013-11-16 00:37:00,
2013-11-15 19:42:00,50.4,47.0,30.19,SSW,202,2.3,8.0,89,0.00,,,0.00,Rainwise IP-100,2013-11-16 00:42:00,
2013-11-15 19:47:00,50.3,47.0,30.19,WSW,247,7.5,10.0,89,0.00,,,0.00,Rainwise IP-100,2013-11-16 00:47:00,
2013-11-15 19:52:00,50.3,47.0,30.19,SSW,202,3.7,10.0,89,0.00,,,0.00,Rainwise IP-100,2013-11-16 00:52:00,
2013-11-15 19:57:00,50.4,47.0,30.19,WSW,247,7.5,10.0,89,0.00,,,0.00,Rainwise IP-100,2013-11-16 00:57:00,
2013-11-15 20:02:00,50.5,47.0,30.19,SSW,202,3.7,9.0,89,0.00,,,0.00,Rainwise IP-100,2013-11-16 01:02:00,
2013-11-15 20:07:00,50.5,47.0,30.19,WSW,247,3.5,9.0,89,0.00,,,0.00,Rainwise IP-100,2013-11-16 01:07:00,
2013-11-15 20:12:00,50.7,47.0,30.20,WSW,247,2.3,11.0,89,0.00,,,0.00,Rainwise IP-100,2013-11-16 01:12:00,
2013-11-15 20:17:00,50.8,47.0,30.20,WSW,247,2.3,11.0,89,0.00,,,0.00,Rainwise IP-100,2013-11-16 01:17:00,
2013-11-15 20:22:00,50.8,47.0,30.20,SSW,202,4.2,10.0,89,0.00,,,0.00,Rainwise IP-100,2013-11-16 01:22:00,
2013-11-15 20:27:00,50.8,47.0,30.20,WSW,247,4.0,10.0,89,0.00,,,0.00,Rainwise IP-100,2013-11-16 01:27:00,
2013-11-15 20:32:00,50.8,47.0,30.20,SW,225,7.9,11.0,89,0.00,,,0.00,Rainwise IP-100,2013-11-16 01:32:00,
2013-11-15 20:37:00,50.9,47.0,30.20,SSW,202,7.2,10.0,88,0.00,,,0.00,Rainwise IP-100,2013-11-16 01:37:00,
2013-11-15 20:42:00,50.8,47.0,30.20,WSW,247,5.6,9.0,88,0.00,,,0.00,Rainwise IP-100,2013-11-16 01:42:00,
2013-11-15 20:47:00,50.7,47.0,30.20,West,270,4.7,9.0,88,0.00,,,0.00,Rainwise IP-100,2013-11-16 01:47:00,
2013-11-15 20:52:00,50.4,47.0,30.20,WSW,247,2.8,7.0,88,0.00,,,0.00,Rainwise IP-100,2013-11-16 01:52:00,
2013-11-15 20:57:00,50.1,47.0,30.21,West,270,3.5,8.0,89,0.00,,,0.00,Rainwise IP-100,2013-11-16 01:57:00,
2013-11-15 21:02:00,49.9,47.0,30.20,WSW,247,5.4,8.0,89,0.00,,,0.00,Rainwise IP-100,2013-11-16 02:02:00,
2013-11-15 21:07:00,49.8,47.0,30.21,WSW,247,8.2,8.2,89,0.00,,,0.00,Rainwise IP-100,2013-11-16 02:07:00,
2013-11-15 21:12:00,49.9,47.0,30.21,WSW,247,2.3,10.0,90,0.00,,,0.00,Rainwise IP-100,2013-11-16 02:12:00,
2013-11-15 21:17:00,49.7,47.0,30.21,WNW,292,4.9,7.0,90,0.00,,,0.00,Rainwise IP-100,2013-11-16 02:17:00,
2013-11-15 21:22:00,49.4,47.0,30.21,SW,225,2.1,8.0,90,0.00,,,0.00,Rainwise IP-100,2013-11-16 02:22:00,
2013-11-15 21:27:00,49.2,47.0,30.21,SW,225,2.1,6.0,90,0.00,,,0.00,Rainwise IP-100,2013-11-16 02:27:00,
2013-11-15 21:32:00,49.1,47.0,30.21,SW,225,2.1,8.0,91,0.00,,,0.00,Rainwise IP-100,2013-11-16 02:32:00,
2013-11-15 21:37:00,49.0,47.0,30.21,SW,225,4.0,6.0,91,0.00,,,0.00,Rainwise IP-100,2013-11-16 02:37:00,
2013-11-15 21:42:00,48.8,47.0,30.21,West,270,0.0,4.0,91,0.00,,,0.00,Rainwise IP-100,2013-11-16 02:42:00,
2013-11-15 21:47:00,48.5,47.0,30.21,SW,225,2.6,7.0,92,0.00,,,0.00,Rainwise IP-100,2013-11-16 02:47:00,
2013-11-15 21:52:00,48.3,46.0,30.21,WSW,247,3.0,5.0,92,0.00,,,0.00,Rainwise IP-100,2013-11-16 02:52:00,
2013-11-15 21:57:00,48.2,46.0,30.21,WSW,247,3.0,4.0,92,0.00,,,0.00,Rainwise IP-100,2013-11-16 02:57:00,
2013-11-15 22:02:00,47.9,46.0,30.21,WSW,247,3.0,5.0,92,0.00,,,0.00,Rainwise IP-100,2013-11-16 03:02:00,
2013-11-15 22:07:00,47.4,46.0,30.21,SW,225,1.4,3.0,93,0.00,,,0.00,Rainwise IP-100,2013-11-16 03:07:00,
2013-11-15 22:12:00,47.2,45.0,30.21,WSW,247,2.8,5.0,93,0.00,,,0.00,Rainwise IP-100,2013-11-16 03:12:00,
2013-11-15 22:17:00,47.1,45.0,30.21,SW,225,2.3,4.0,93,0.00,,,0.00,Rainwise IP-100,2013-11-16 03:17:00,
2013-11-15 22:22:00,46.9,45.0,30.22,WSW,247,1.6,3.0,93,0.00,,,0.00,Rainwise IP-100,2013-11-16 03:22:00,
2013-11-15 22:27:00,46.7,45.0,30.21,WSW,247,0.0,2.0,93,0.00,,,0.00,Rainwise IP-100,2013-11-16 03:27:00,
2013-11-15 22:32:00,46.5,45.0,30.21,WSW,247,1.6,2.0,93,0.00,,,0.00,Rainwise IP-100,2013-11-16 03:32:00,
2013-11-15 22:37:00,46.3,44.0,30.21,WSW,247,0.0,1.0,94,0.00,,,0.00,Rainwise IP-100,2013-11-16 03:37:00,
2013-11-15 22:42:00,46.0,44.0,30.21,WSW,247,0.0,2.0,94,0.00,,,0.00,Rainwise IP-100,2013-11-16 03:42:00,
2013-11-15 22:47:00,45.5,44.0,30.21,SSW,202,1.4,2.0,94,0.00,,,0.00,Rainwise IP-100,2013-11-16 03:47:00,
2013-11-15 22:52:00,45.2,43.0,30.21,SSW,202,0.0,2.0,94,0.00,,,0.00,Rainwise IP-100,2013-11-16 03:52:00,
2013-11-15 22:57:00,44.9,43.0,30.21,SSW,202,1.2,1.2,94,0.00,,,0.00,Rainwise IP-100,2013-11-16 03:57:00,
2013-11-15 23:02:00,44.6,43.0,30.21,SSW,202,0.0,1.0,94,0.00,,,0.00,Rainwise IP-100,2013-11-16 04:02:00,
2013-11-15 23:07:00,44.7,43.0,30.22,WSW,247,0.0,1.0,94,0.00,,,0.00,Rainwise IP-100,2013-11-16 04:07:00,
2013-11-15 23:12:00,44.6,43.0,30.21,WSW,247,2.6,2.6,94,0.00,,,0.00,Rainwise IP-100,2013-11-16 04:12:00,
2013-11-15 23:17:00,44.6,43.0,30.22,WSW,247,2.3,3.0,94,0.00,,,0.00,Rainwise IP-100,2013-11-16 04:17:00,
2013-11-15 23:22:00,44.7,44.0,30.22,WSW,247,1.2,2.0,95,0.00,,,0.00,Rainwise IP-100,2013-11-16 04:22:00,
2013-11-15 23:27:00,44.7,44.0,30.22,SW,225,1.4,4.0,95,0.00,,,0.00,Rainwise IP-100,2013-11-16 04:27:00,
2013-11-15 23:32:00,44.8,44.0,30.22,WSW,247,2.1,2.1,95,0.00,,,0.00,Rainwise IP-100,2013-11-16 04:32:00,
2013-11-15 23:37:00,44.6,44.0,30.22,WSW,247,2.1,3.0,95,0.00,,,0.00,Rainwise IP-100,2013-11-16 04:37:00,
2013-11-15 23:42:00,44.6,44.0,30.23,WSW,247,4.2,4.2,95,0.00,,,0.00,Rainwise IP-100,2013-11-16 04:42:00,
2013-11-15 23:47:00,44.9,44.0,30.23,WSW,247,1.9,5.0,95,0.00,,,0.00,Rainwise IP-100,2013-11-16 04:47:00,
2013-11-15 23:52:00,45.2,44.0,30.23,WSW,247,0.0,4.0,95,0.00,,,0.00,Rainwise IP-100,2013-11-16 04:52:00,
2013-11-15 23:57:00,45.2,44.0,30.23,WSW,247,1.2,4.0,95,0.00,,,0.00,Rainwise IP-100,2013-11-16 04:57:00,